[[{"header":{"parameterUnit":"m.s-1","parameterCategory":1,"la1":30.2991,"la2":30.254,"lo1":-89.0895,"lo2":-89.0444,"dy":0.0017,"dx":0.0017,"nx":28,"ny":28,"refTime":"2023-10-28T21:00:00:Z","depth":0,"parameterNumber":2,"parameterNumberName":"U-component_of_WINDS"},"data":[0,0,0,0,0,0,0,0,0,0,0,0,0,0,0,0,0,0,0,0,0,0,0,0,0,0,0,0,0,0,0,0,0,0,0,0,0,0,0,0,0,0,0,0,0,0,0,0,0,0,0,0,0,0,0,0,0,0,-2.4612,-2.4614,0,-2.484,-2.4843,-2.4845,-2.4897,-2.4895,-2.4894,-2.4892,-2.5131,-2.5139,-2.5147,0,0,0,0,0,0,0,0,0,0,0,0,0,-2.4228,-2.4235,-2.4611,-2.4614,-2.4617,-2.484,-2.4843,-2.4846,-2.4897,-2.4895,-2.4893,-2.4891,-2.5129,-2.5138,-2.5148,0,0,0,0,0,0,0,0,0,0,0,0,0,-2.4419,-2.4237,-2.4611,-2.4669,-2.4677,-2.4839,-2.4843,-2.4847,-2.4898,-2.4895,-2.4893,-2.489,-2.5126,-2.5137,-2.5149,-2.5271,0,0,-2.5185,-2.519,0,0,0,0,0,0,0,0,-2.4408,-2.4433,-2.4658,-2.4666,-2.4674,-2.4837,-2.4795,-2.4989,-2.4898,-2.4814,-2.4892,-2.4889,-2.5036,-2.5055,-2.5103,-2.5282,-2.5292,-2.5186,-2.5193,-2.5198,-2.5202,0,0,0,0,0,0,0,-2.4395,-2.4424,-2.4702,-2.4661,-2.4671,-2.4687,-2.4712,-2.4832,-2.4936,-2.4821,-2.4825,-2.4851,-2.504,-2.5092,-2.5109,-2.5296,-2.5186,-2.5196,-2.5204,-2.5208,-2.559,-2.5593,0,0,0,0,0,0,-2.4371,-2.4412,-2.4695,-2.4709,-2.4532,-2.4696,-2.4723,-2.4788,-2.4935,-2.4955,-2.4853,-2.4853,-2.5073,-2.5095,-2.5118,-2.5272,-2.5198,-2.5209,-2.5216,-2.5587,-2.559,-2.5594,0,0,0,0,0,0,-2.4362,-2.4395,-2.4686,-2.4562,-2.46,-2.4705,-2.4777,-2.4793,-2.4845,-2.4959,-2.4978,-2.4887,-2.5072,-2.5101,-2.5233,-2.528,-2.5215,-2.5225,-2.5583,-2.5588,-2.5592,-2.5578,0,0,0,0,0,0,-2.4351,-2.4392,-2.4437,-2.4563,-2.4606,-2.4794,-2.478,-2.48,-2.4865,-2.4867,-2.4995,-2.5014,-2.5072,-2.5215,-2.5244,-2.5296,-2.5235,-2.5579,-2.5585,-2.5591,-2.5575,-2.5582,-2.5588,0,0,0,0,0,-2.4337,-2.4424,-2.4439,-2.4472,-2.4664,-2.4796,-2.4822,-2.4885,-2.4868,-2.4916,-2.499,-2.501,-2.5271,-2.5228,-2.5262,-2.5317,-2.5576,-2.5583,-2.559,-2.5572,-2.558,-2.5588,0,0,0,0,0,0,-2.4302,-2.4442,-2.4459,-2.4589,-2.468,-2.4804,-2.4866,-2.4891,-2.499,-2.4988,-2.5064,-2.5093,-2.522,-2.5282,-2.5232,-2.5445,-2.5424,-2.5438,-2.5398,-2.5407,-2.5414,-2.5395,-2.5244,0,0,0,0,0,-2.4309,-2.4402,-2.4521,-2.4624,-2.4669,-2.476,-2.4819,-2.4861,-2.4959,-2.4998,-2.5081,-2.5178,-2.5282,-2.5349,-2.545,-2.5586,-2.5616,-2.5641,-2.5647,-2.5652,-2.5662,-2.5741,-2.5754,-2.5616,-2.5616,-2.5616,0,0,-2.4326,-2.4414,-2.4467,-2.4619,-2.4695,-2.4792,-2.4792,-2.4894,-2.4968,-2.5014,-2.5142,-2.5208,-2.5321,-2.5455,-2.5519,-2.5511,-2.5708,-2.5661,-2.5664,-2.5672,-2.575,-2.5763,-2.5774,-2.5621,-2.562,-2.5619,0,0,-2.4404,-2.448,-2.4575,-2.4651,-2.4765,-2.4826,-2.4849,-2.4971,-2.5015,-2.5146,-2.5183,-2.5275,-2.5451,-2.5531,-2.5594,-2.5709,-2.5732,-2.5741,-2.5773,-2.5849,-2.586,-2.587,-2.5911,-2.5925,-2.5751,-2.5751,-2.5751,0,-2.441,-2.4555,-2.4621,-2.4722,-2.4789,-2.4836,-2.4935,-2.5006,-2.5149,-2.5195,-2.5185,-2.541,-2.549,-2.5644,-2.5672,-2.5722,-2.5753,-2.5724,-2.5852,-2.5863,-2.5874,-2.5914,-2.5929,-2.5751,-2.5751,-2.5751,-2.5751,0,-2.4558,-2.4658,-2.4722,-2.4857,-2.4932,-2.5031,-2.5115,-2.5184,-2.522,-2.5283,-2.5418,-2.5515,-2.5639,-2.5679,-2.5716,-2.5841,-2.5833,-2.5837,-2.5817,-2.5886,-2.5925,-2.5941,-2.5752,-2.5751,-2.5751,-2.5751,0,0,-2.4616,-2.4789,-2.4811,-2.4874,-2.5006,-2.5086,-2.5191,-2.531,-2.5368,-2.5467,-2.5557,-2.5708,-2.5714,-2.5786,-2.5833,-2.59,-2.5986,-2.5897,-2.5901,-2.591,-2.6132,-2.6126,-2.6143,-2.6004,-2.6007,-2.601,-2.6122,0,-2.471,-2.4893,-2.4958,-2.5111,-2.5206,-2.5255,-2.5346,-2.5439,-2.5502,-2.5595,-2.5666,-2.5771,-2.577,-2.5815,-2.5883,-2.5961,-2.6032,-2.5954,-2.609,-2.6094,-2.6057,-2.6163,-2.6157,-2.6258,-2.6138,-2.6141,-2.6143,0,-2.4843,-2.4942,-2.5103,-2.5226,-2.5269,-2.5349,-2.5466,-2.5553,-2.5661,-2.5703,-2.5786,-2.5829,-2.5943,-2.5919,-2.6079,-2.6024,-2.6085,-2.6132,-2.6138,-2.6151,-2.612,-2.6179,-2.6292,-2.6307,-2.6167,-2.6165,-2.6164,0,-2.4869,-2.5044,-2.5163,-2.5216,-2.5362,-2.5418,-2.5482,-2.5587,-2.5656,-2.576,-2.5806,-2.5923,-2.5986,-2.6077,-2.6152,-2.6127,-2.6306,-2.6287,-2.6345,-2.6343,-2.6378,-2.6374,-2.6501,-2.6419,-2.6419,-2.6419,-2.6419,0,-2.4966,-2.5063,-2.5177,-2.525,-2.5362,-2.5438,-2.5547,-2.5615,-2.5709,-2.5799,-2.5851,-2.5935,-2.6029,-2.6127,-2.6187,-2.6311,-2.634,-2.6378,-2.6392,-2.6372,-2.6367,-2.6411,-2.6405,-2.6423,-2.6422,-2.6421,-2.6421,0,-2.5012,-2.5092,-2.5226,-2.5354,-2.5389,-2.5465,-2.5577,-2.5652,-2.5719,-2.5833,-2.5864,-2.597,-2.6088,-2.6172,-2.6325,-2.6365,-2.6499,-2.6514,-2.6461,-2.6468,-2.6521,-2.6514,-2.6679,-2.6705,-2.6607,-2.6608,-2.6608,0,-2.5067,-2.5142,-2.5279,-2.5342,-2.5406,-2.5507,-2.5578,-2.5658,-2.573,-2.5862,-2.5922,-2.6043,-2.6144,-2.6331,-2.6423,-2.6541,-2.6558,-2.6608,-2.6576,-2.6554,-2.6559,-2.6552,-2.6561,-2.6612,-2.6612,-2.6613,-2.6613,0,-2.5156,-2.5193,-2.5292,-2.5406,-2.5489,-2.5583,-2.5679,-2.5728,-2.5826,-2.5906,-2.6026,-2.6104,-2.6261,-2.6381,-2.6509,-2.6579,-2.6613,-2.6624,-2.6643,-2.6622,-2.6588,-2.6607,-2.6472,-2.6618,-2.6618,-2.6617,-2.6617,-2.6617,-2.5208,-2.5279,-2.5386,-2.5496,-2.5576,-2.5665,-2.5742,-2.582,-2.5921,-2.6052,-2.6095,-2.622,-2.6332,-2.6507,-2.6579,-2.668,-2.6678,-2.6706,-2.6713,-2.6718,-2.6717,-2.6574,-2.6704,-2.6704,-2.6704,-2.6704,-2.6704,0,-2.53,-2.5372,-2.5472,-2.5604,-2.5691,-2.5716,-2.5824,-2.5896,-2.6005,-2.6105,-2.6204,-2.6344,-2.6463,-2.6566,-2.669,-2.6751,-2.6771,-2.6781,-2.6776,-2.6792,-2.6712,-2.6682,-2.6764,-2.6764,-2.6764,-2.6764,-2.6763,-2.6763,-2.5357,-2.5477,-2.5528,-2.5691,-2.5764,-2.5885,-2.5945,-2.6029,-2.6109,-2.6263,-2.6361,-2.6427,-2.653,-2.6663,-2.6774,-2.6802,-2.6845,-2.6851,-2.6882,-2.6805,-2.6798,-2.6791,-2.6763,-2.686,-2.686,-2.6954,-2.6955,-2.6956]},{"header":{"parameterUnit":"m.s-1","parameterCategory":1,"la1":30.2991,"la2":30.254,"lo1":-89.0895,"lo2":-89.0444,"dy":0.0017,"dx":0.0017,"nx":28,"ny":28,"refTime":"2023-10-28T21:00:00:Z","depth":0,"parameterNumber":3,"parameterNumberName":"V-component_of_WINDS"},"data":[0,0,0,0,0,0,0,0,0,0,0,0,0,0,0,0,0,0,0,0,0,0,0,0,0,0,0,0,0,0,0,0,0,0,0,0,0,0,0,0,0,0,0,0,0,0,0,0,0,0,0,0,0,0,0,0,0,0,0.1317,0.1319,0,0.1526,0.1528,0.153,0.1667,0.1668,0.1669,0.167,0.1896,0.1901,0.1906,0,0,0,0,0,0,0,0,0,0,0,0,0,0.1053,0.1057,0.1317,0.132,0.1322,0.1525,0.1528,0.1531,0.1667,0.1668,0.1669,0.167,0.1894,0.19,0.1907,0,0,0,0,0,0,0,0,0,0,0,0,0,0.1205,0.1058,0.1317,0.1414,0.1425,0.1525,0.1528,0.1532,0.1667,0.1668,0.1669,0.1671,0.1892,0.19,0.1908,0.193,0,0,0.1932,0.1935,0,0,0,0,0,0,0,0,0.1196,0.1215,0.1397,0.1408,0.142,0.1571,0.1518,0.1666,0.1666,0.1575,0.167,0.1671,0.1788,0.1804,0.1841,0.1941,0.1951,0.1932,0.1937,0.194,0.1943,0,0,0,0,0,0,0,0.1186,0.1207,0.14,0.14,0.1414,0.1453,0.1476,0.1547,0.1672,0.1583,0.1594,0.1616,0.1794,0.1833,0.1847,0.1954,0.1932,0.1939,0.1944,0.1947,0.209,0.209,0,0,0,0,0,0,0.1158,0.1197,0.1393,0.1406,0.1309,0.1457,0.1482,0.1522,0.1672,0.1696,0.1615,0.1622,0.1819,0.1838,0.1856,0.1896,0.194,0.1948,0.1952,0.2091,0.209,0.2089,0,0,0,0,0,0,0.1151,0.1174,0.1385,0.1305,0.1334,0.146,0.1503,0.1525,0.1564,0.1695,0.172,0.163,0.1821,0.1845,0.1911,0.1906,0.1951,0.1958,0.2092,0.2091,0.209,0.1973,0,0,0,0,0,0,0.1143,0.1171,0.1176,0.1303,0.1338,0.1431,0.1502,0.1528,0.1575,0.1586,0.1716,0.1739,0.1824,0.1899,0.1919,0.1917,0.1964,0.2093,0.2092,0.209,0.1978,0.1968,0.196,0,0,0,0,0,0.1133,0.1137,0.1176,0.1199,0.1347,0.1431,0.1451,0.1544,0.1574,0.1584,0.167,0.1735,0.1903,0.1904,0.1928,0.1929,0.2094,0.2092,0.209,0.1983,0.197,0.196,0,0,0,0,0,0,0.101,0.1155,0.12,0.1244,0.1323,0.1453,0.1468,0.1528,0.1604,0.1611,0.1729,0.1757,0.1813,0.1878,0.1877,0.1962,0.2007,0.201,0.1917,0.1906,0.1897,0.1881,0.1971,0,0,0,0,0,0.0987,0.1037,0.1164,0.1191,0.1229,0.1341,0.1381,0.1446,0.1535,0.1571,0.1661,0.1749,0.1823,0.1868,0.1943,0.1989,0.2023,0.2002,0.1993,0.1984,0.1986,0.2021,0.2014,0.2083,0.2083,0.2083,0,0,0.0941,0.1027,0.1053,0.1169,0.1238,0.1293,0.1369,0.1423,0.1467,0.1581,0.1648,0.1718,0.1825,0.1882,0.1912,0.1938,0.1974,0.1982,0.1974,0.198,0.2018,0.2011,0.2006,0.2081,0.2082,0.2082,0,0,0.0887,0.0955,0.0986,0.1054,0.1157,0.1233,0.124,0.1362,0.1412,0.1481,0.1569,0.1626,0.1748,0.1822,0.1875,0.1854,0.1919,0.1875,0.1827,0.186,0.1854,0.185,0.1846,0.1843,0.1876,0.1876,0.1876,0,0.0818,0.09,0.0996,0.1046,0.1097,0.1199,0.1236,0.1299,0.1422,0.1458,0.1485,0.1643,0.1722,0.18,0.1795,0.1834,0.1851,0.1861,0.1846,0.1843,0.1841,0.1839,0.1836,0.187,0.1871,0.1871,0.1872,0,0.0813,0.0869,0.0883,0.0996,0.1049,0.1092,0.12,0.1243,0.1306,0.138,0.1453,0.1552,0.165,0.1674,0.1736,0.1763,0.1777,0.1823,0.187,0.1827,0.1827,0.1827,0.1862,0.1864,0.1866,0.1867,0,0,0.0684,0.0851,0.0855,0.091,0.1033,0.1081,0.1132,0.1224,0.1261,0.1345,0.1394,0.1497,0.1542,0.1603,0.1675,0.1703,0.1685,0.1748,0.1753,0.1735,0.1728,0.1692,0.1689,0.1729,0.1729,0.173,0.172,0,0.065,0.074,0.083,0.0891,0.0947,0.1048,0.1093,0.1177,0.1249,0.1312,0.1396,0.1467,0.1519,0.1557,0.159,0.168,0.1686,0.1682,0.1782,0.1784,0.1752,0.1689,0.1651,0.1636,0.172,0.172,0.172,0,0.0621,0.0696,0.0761,0.0882,0.091,0.0947,0.1042,0.1099,0.12,0.1251,0.132,0.1397,0.1462,0.1503,0.1598,0.1593,0.1641,0.1692,0.1694,0.1708,0.1749,0.1703,0.1633,0.1631,0.172,0.172,0.172,0,0.0524,0.0642,0.0697,0.0741,0.0883,0.0908,0.097,0.1071,0.1122,0.1207,0.1243,0.1336,0.1387,0.146,0.1563,0.1582,0.1649,0.1697,0.1699,0.1696,0.1708,0.1706,0.1647,0.1735,0.1736,0.1736,0.1736,0,0.0477,0.0513,0.0656,0.0689,0.0736,0.0843,0.0888,0.0959,0.1049,0.1103,0.1198,0.1249,0.138,0.1449,0.153,0.1599,0.1622,0.167,0.1691,0.1662,0.1656,0.1695,0.1699,0.1735,0.1735,0.1735,0.1735,0,0.0375,0.0471,0.0539,0.0668,0.0702,0.073,0.0845,0.0885,0.0964,0.1032,0.1055,0.118,0.1266,0.1375,0.1497,0.1553,0.1614,0.1646,0.1578,0.1591,0.1587,0.1587,0.1552,0.1555,0.1638,0.1637,0.1636,0,0.0339,0.0369,0.0501,0.0542,0.0599,0.0665,0.0717,0.0826,0.0878,0.0997,0.1024,0.1116,0.1196,0.133,0.1436,0.1531,0.1568,0.1549,0.1583,0.1554,0.1572,0.1569,0.1575,0.1541,0.1539,0.1538,0.1537,0,0.0266,0.0313,0.0381,0.0468,0.0527,0.0602,0.0682,0.0712,0.0839,0.0894,0.098,0.1042,0.1166,0.1259,0.1368,0.1439,0.1512,0.1525,0.1532,0.1502,0.1463,0.1487,0.1557,0.1526,0.1527,0.1528,0.1528,0.1529,0.0199,0.0231,0.0329,0.0405,0.0476,0.0549,0.0594,0.0678,0.075,0.0856,0.0918,0.1004,0.1111,0.1264,0.1333,0.1407,0.1434,0.1441,0.1444,0.1444,0.1436,0.1449,0.1427,0.1428,0.1428,0.1429,0.1429,0,0.0132,0.0201,0.0269,0.0376,0.0437,0.0495,0.0588,0.0637,0.0709,0.08,0.0876,0.0979,0.107,0.1184,0.1285,0.1323,0.1359,0.1346,0.1346,0.1362,0.1405,0.1391,0.1316,0.1316,0.1316,0.1316,0.1316,0.1316,0.0105,0.0164,0.0224,0.0322,0.0393,0.0473,0.0522,0.0593,0.0666,0.0775,0.0849,0.0922,0.1025,0.1135,0.1224,0.1256,0.129,0.1268,0.131,0.1348,0.1358,0.1368,0.1355,0.1274,0.1273,0.1262,0.1261,0.1261]}]]